Back to catalog

CZ-6A DEB

AliveSSO
NORAD 54442·DEBRIS·🇨🇳 China

Launched Nov 11, 2022 from Taiyuan Satellite Launch Center

Loading…

Next Passes (next 24 hours)

TLE

FreshSource: Space-Track

Epoch: Sep 14, 2026, 08:19 UTC

1 54442U 22151FS  26257.34694929  .00000454  00000-0  32089-3 0  9996
2 54442  98.8760 229.8315 0105644 169.4653 190.8760 14.00088552195855

Track CZ-6A DEB in real time with AllMySat

Download on the App Store